Temperature
17 17 17 17 16 16 16 16 15 15 15 15 14 14 14 14 14 14 13 13 13 13 13 13 13 13 13 14 14 14 14 14 14 14 14 14 14 14 14 15 15 15 15
17 17 17 17 16 16 16 16 15 15 15 15 14 14 14 14 14 14 13 13 13 13 13 13 13 13 13 13 13 14 14 14 14 14 14 14 14 14 14 14 14 15 15
17 17 17 16 16 16 16 15 15 15 15 15 15 14 14 14 14 14 14 13 13 13 13 13 13 13 13 13 13 13 13 13 14 14 14 14 14 14 14 14 14 14 14
17 17 16 16 16 16 15 15 15 15 15 14 14 14 14 14 14 14 14 14 13 13 13 13 13 13 13 13 13 13 13 13 13 13 13 13 14 14 14 14 14 14 14
17 17 16 16 16 16 15 15 15 15 15 15 14 14 14 14 14 14 14 14 14 13 13 13 13 13 13 13 13 13 13 13 13 13 13 13 13 13 13 14 14 14 14
17 17 16 16 16 15 15 15 15 15 15 14 14 14 14 14 14 14 14 14 14 14 13 13 13 13 13 13 13 13 13 13 13 13 13 13 13 13 13 13 14 13 13
17 16 16 16 15 15 15 15 15 15 14 14 14 14 14 14 14 14 14 14 14 14 14 13 13 13 13 13 13 13 13 13 13 13 13 13 13 13 13 13 13 13 13
16 16 16 15 15 15 15 14 14 14 14 14 14 14 14 14 14 14 14 14 14 14 14 14 13 13 13 13 13 13 13 13 13 13 13 13 13 13 13 13 13 13 13
16 16 15 15 15 15 14 14 14 14 14 14 14 14 14 14 14 14 14 14 14 14 14 14 13 13 13 13 13 13 13 13 13 13 13 12 12 13 13 13 13 13 12
15 15 15 15 14 14 14 14 14 14 14 13 13 13 13 13 14 14 14 14 13 13 13 13 13 13 13 13 13 13 13 12 12 12 12 12 12 12 12 12 13 12 12
15 15 14 14 14 14 14 13 13 13 13 13 13 13 13 13 13 14 14 13 13 13 13 13 13 13 13 13 13 13 13 12 12 12 12 12 12 12 12 12 12 12 12
15 14 14 14 13 13 13 13 13 13 13 13 13 13 13 13 13 13 13 13 13 13 13 13 13 13 13 13 13 12 12 12 12 12 12 12 12 12 12 12 12 12 12
14 14 13 13 13 13 13 13 13 12 12 12 12 12 13 13 13 13 13 13 13 12 12 12 12 12 12 12 12 12 12 12 12 12 12 11 11 11 11 11 11 11 12
13 13 13 13 13 12 12 12 12 12 12 12 12 12 12 12 12 12 12 12 12 12 12 12 12 12 12 12 12 12 12 12 12 12 11 11 11 11 11 11 11 11 11
13 13 13 12 12 12 12 12 12 12 12 12 12 12 11 12 12 12 12 12 12 12 11 11 11 11 11 11 11 11 11 11 11 11 11 11 11 11 11 11 11 10 11
12 12 12 12 12 12 11 11 11 11 11 11 11 11 11 11 11 11 11 11 11 11 11 11 11 11 11 11 11 11 11 11 11 11 11 10 10 10 10 10 10 10 10
12 12 12 12 12 11 11 11 11 11 11 11 11 11 11 11 11 11 11 11 11 11 11 11 11 10 10 10 10 10 10 10 10 10 10 10 10 10 10 10 10 10 10
12 12 11 11 11 11 11 11 11 11 11 11 11 11 11 11 11 11 10 10 10 10 10 10 10 10 10 10 10 10 10 10 10 10 10 10 10 10 10 9 9 9 9
11 11 11 11 11 11 11 10 11 10 10 11 11 11 11 11 10 10 10 10 10 10 10 10 10 10 10 10 10 10 10 10 10 9 9 9 9 9 9 9 9 9 9
11 11 11 10 10 10 10 10 10 10 10 10 10 10 10 10 10 10 10 10 9 9 10 10 10 9 9 9 9 9 9 9 9 9 9 9 9 9 9 9 8 8 8
10 10 10 10 10 10 10 10 10 10 10 10 10 10 10 10 10 10 9 9 9 9 9 9 9 9 9 9 9 9 9 9 9 9 9 9 9 9 8 8 8 8 8
9 9 9 9 10 10 9 9 9 9 9 9 10 10 10 10 9 9 9 9 9 9 9 9 9 9 9 9 9 9 9 9 9 8 8 8 8 8 8 8 8 7 7
9 9 9 9 9 9 9 9 9 9 9 9 9 9 9 9 9 9 9 9 9 9 9 9 9 9 8 8 8 8 8 8 8 8 8 8 8 8 8 8 7 7 7
8 8 8 8 8 8 8 8 9 9 9 9 9 9 9 9 9 9 8 8 8 8 8 8 8 8 8 8 8 8 8 8 8 8 7 7 7 7 7 7 7 7 7
8 7 8 8 8 8 8 8 8 8 8 8 8 8 8 8 8 8 8 8 8 8 8 8 8 8 8 8 8 8 8 7 7 7 7 7 7 7 7 7 7 6 6
7 7 7 7 7 8 8 8 8 8 8 8 8 8 8 8 8 8 8 8 8 8 8 8 8 8 7 7 7 7 7 7 7 7 7 7 7 7 6 6 6 6 6
Wind_Speed
3 3 3 3 2 1 1 1 0 0 1 0 1 2 1 1 1 0 1 1 1 2 2 2 2 1 1 2 1 1 2 1 2 2 1 1 2 2 3 4 5 7 9
2 2 2 2 2 1 1 1 1 1 1 1 1 2 2 1 1 1 1 1 1 2 2 2 2 2 2 2 1 2 2 2 2 2 1 1 1 2 3 3 3 5 7
2 1 1 1 1 1 1 1 2 2 2 2 2 2 1 1 1 1 1 1 1 1 1 1 2 2 2 2 2 2 2 1 1 1 1 1 1 1 1 2 2 1 4
3 2 1 1 1 1 1 1 2 2 2 2 2 1 1 1 1 1 2 2 2 1 1 1 0 1 1 2 2 2 1 1 1 1 1 1 1 1 2 2 1 1 2
2 2 1 1 1 0 1 1 2 2 3 3 2 2 1 1 1 1 2 2 2 2 1 1 1 1 1 1 1 2 2 1 1 1 1 1 1 1 2 2 2 2 1
2 2 2 1 1 0 1 2 2 2 3 3 2 2 2 2 2 1 1 3 3 2 1 1 1 1 1 1 1 1 2 1 1 0 0 0 1 1 1 2 2 2 1
2 2 2 1 0 1 2 2 2 2 2 3 3 2 2 3 3 3 3 3 3 2 2 1 1 1 1 1 1 1 1 1 0 1 1 1 1 1 2 2 3 3 2
2 2 1 0 1 1 2 2 3 3 2 3 3 3 3 4 4 4 5 4 4 3 1 0 0 0 1 1 1 1 1 0 0 1 1 0 1 0 1 2 3 3 2
2 2 1 0 1 2 2 3 3 3 3 3 3 3 3 4 5 5 4 4 4 3 2 1 1 1 1 0 1 1 1 1 2 4 5 4 4 4 3 2 2 2 1
2 1 1 1 2 3 3 3 2 3 3 3 4 3 4 3 4 5 4 3 4 2 2 1 1 1 1 1 2 2 1 1 1 2 2 2 2 3 3 2 2 2 2
1 1 1 2 3 3 3 2 2 3 4 4 4 3 3 3 4 4 4 3 3 2 2 1 1 2 2 2 2 2 2 2 1 2 2 2 2 1 1 1 2 2 2
2 2 2 3 3 3 2 3 3 3 4 4 3 3 2 1 1 1 1 2 3 2 2 1 1 2 1 2 2 2 1 1 1 1 2 2 1 1 1 2 3 3 3
2 3 3 3 3 2 2 3 3 3 3 3 3 2 2 1 1 1 2 2 1 1 1 2 3 3 2 2 3 3 2 2 2 2 2 2 2 2 2 2 3 3 3
3 3 3 3 3 3 2 3 3 3 3 3 3 3 3 2 1 1 1 2 2 1 1 2 3 4 4 3 3 3 2 2 3 3 3 2 2 2 2 2 2 2 2
4 4 4 3 3 3 3 3 4 4 4 4 4 3 3 3 4 4 3 3 3 2 2 2 2 3 3 3 3 3 3 3 3 3 3 2 2 2 2 2 2 2 2
4 4 3 3 3 3 3 4 4 5 6 6 6 6 4 5 5 4 3 3 4 3 2 3 4 4 4 4 4 3 3 3 3 3 3 3 3 3 2 2 2 3 2
4 3 3 3 3 4 4 4 4 5 6 7 8 7 7 7 6 6 6 4 4 4 3 4 5 5 4 4 3 3 3 3 2 3 3 3 3 3 3 2 2 2 3
5 4 4 3 4 4 4 4 4 4 4 4 5 8 8 8 7 7 6 2 3 4 4 4 4 4 3 3 3 3 3 3 2 3 3 3 3 3 3 3 3 3 3
5 3 3 3 4 5 5 5 5 5 5 4 3 4 5 5 6 7 6 4 5 5 5 5 4 4 3 3 3 3 3 3 3 3 3 4 4 4 3 3 4 4 3
5 7 6 5 5 5 5 5 5 5 5 5 5 4 3 3 3 5 6 6 5 5 5 5 5 4 4 3 3 3 3 3 3 3 3 4 4 4 4 5 4 4 3
5 6 8 6 5 5 5 5 6 5 6 6 6 6 6 5 6 7 7 6 6 6 5 5 4 4 4 4 3 4 4 4 3 3 3 3 3 4 4 4 4 4 4
5 5 5 5 5 5 6 6 6 6 6 7 5 5 8 6 6 6 6 7 7 6 5 5 5 4 4 5 5 4 4 4 4 3 4 3 2 3 4 4 4 4 4
5 6 6 6 5 7 7 6 6 6 6 6 6 5 6 6 6 6 6 6 6 5 5 5 5 4 4 4 4 5 5 5 5 4 4 4 3 3 3 4 5 6 5
6 7 7 7 6 6 7 6 6 6 7 7 6 5 6 6 6 6 6 5 5 5 5 5 5 6 6 5 5 5 5 6 6 5 5 5 5 4 4 4 5 6 6
6 7 8 7 7 7 7 7 7 7 7 7 7 6 6 6 6 6 6 5 5 5 6 6 5 6 7 7 7 6 8 8 8 7 6 4 5 5 5 5 5 5 5
7 8 8 7 7 7 7 7 7 7 7 7 7 6 6 6 6 6 6 5 5 5 6 6 6 7 7 7 8 10 11 11 10 9 6 4 5 5 6 5 6 6 6
Wind_Direction
200 191 171 188 187 173 231 304 292 274 282 75 296 290 283 243 247 247 264 291 313 317 321 316 312 312 319 311 300 281 265 215 229 280 271 234 173 162 154 169 171 173 183
201 193 178 173 160 171 201 262 285 274 249 222 249 279 277 255 242 257 285 302 289 306 318 337 330 333 325 302 295 273 265 234 203 249 282 287 184 165 163 166 173 179 172
166 182 142 153 156 186 220 256 273 274 268 248 236 251 277 277 271 264 258 278 273 276 277 326 325 338 323 313 299 284 270 271 212 216 257 245 220 156 140 156 162 143 164
136 139 149 154 150 244 255 254 260 273 285 282 271 254 251 277 282 295 288 273 275 272 230 172 217 345 334 331 319 320 317 301 255 229 235 245 207 189 142 159 157 155 150
130 141 158 167 137 264 283 277 283 287 295 296 288 281 269 277 292 312 304 285 288 282 270 196 174 156 87 51 12 349 351 346 293 225 216 189 190 159 170 175 149 140 121
119 119 118 109 109 265 295 299 301 305 302 298 291 279 281 288 291 246 263 284 285 282 278 265 211 165 140 131 84 58 45 25 330 343 204 172 240 215 159 150 144 138 177
101 100 108 134 147 261 290 301 289 278 279 284 284 277 270 267 278 276 255 251 267 271 264 271 303 29 71 148 200 226 355 2 135 166 140 253 241 227 167 159 157 157 181
84 91 91 354 247 251 274 284 277 273 267 271 276 264 255 266 260 271 264 240 249 246 245 233 189 335 335 188 177 132 150 82 150 162 147 221 4 12 131 165 167 140 107
65 46 48 324 281 253 257 268 281 290 284 272 270 262 252 255 252 262 258 244 240 231 204 205 181 180 342 123 151 158 157 189 164 141 140 132 94 75 83 95 105 138 161
49 8 356 310 275 255 248 258 274 283 276 275 272 263 254 244 244 252 251 245 244 234 208 190 170 196 176 134 177 180 190 232 205 169 158 149 123 83 89 117 150 158 161
8 346 312 284 279 270 253 251 266 273 277 274 273 271 269 258 244 241 234 233 248 244 232 219 215 187 190 165 160 179 205 224 225 170 155 144 130 117 105 85 87 128 154
342 301 279 266 267 280 270 262 257 262 268 273 282 288 282 283 281 262 248 238 268 258 253 252 246 186 172 175 180 213 229 247 233 151 129 132 135 135 136 132 101 85 96
319 301 291 288 279 275 268 268 269 263 265 271 275 277 286 306 333 263 221 248 277 254 254 243 247 236 228 215 223 227 226 221 198 178 165 175 175 168 153 137 121 104 91
308 297 290 289 295 291 289 272 268 266 265 266 270 271 270 268 261 286 266 258 264 271 260 257 256 247 243 229 238 240 222 207 194 191 181 182 166 150 143 136 135 137 110
306 295 293 289 281 284 278 271 268 262 256 255 255 253 252 254 250 245 240 258 249 242 244 261 260 251 236 226 217 212 214 209 206 201 188 185 175 160 160 152 145 142 141
302 307 305 299 287 278 280 290 289 271 273 267 252 250 256 242 237 239 240 255 270 239 214 228 237 234 232 223 214 215 218 212 204 196 192 190 185 177 173 164 149 145 151
298 301 301 297 293 281 273 269 284 299 291 275 264 253 242 236 227 229 234 239 252 230 223 230 235 233 229 224 217 212 213 206 201 195 189 185 179 173 167 165 165 157 160
298 295 294 284 282 280 274 269 265 264 273 281 273 253 238 229 223 224 223 227 246 226 228 236 242 239 231 222 215 213 208 197 202 205 195 185 178 174 168 169 166 163 164
300 289 285 284 283 280 276 272 267 264 259 262 269 270 249 229 221 220 207 223 228 228 231 236 238 235 226 214 210 209 204 204 205 203 201 193 186 179 176 172 167 167 166
296 288 282 276 275 277 276 274 272 266 263 255 248 247 229 218 226 221 222 232 231 230 232 231 231 222 213 207 204 204 208 209 204 200 204 197 189 183 178 173 170 169 170
289 288 282 274 269 270 273 274 274 269 266 261 252 238 221 224 224 223 223 227 228 231 233 233 233 218 208 199 198 200 202 208 207 197 188 199 197 190 182 174 170 166 159
286 284 283 277 273 272 273 271 272 273 274 271 270 247 218 224 228 225 225 228 226 226 225 226 231 223 210 202 197 200 206 203 201 198 186 183 197 192 177 172 165 162 158
286 287 288 283 278 277 276 271 269 270 272 271 269 257 229 231 237 236 233 233 230 225 220 220 222 218 211 202 194 192 203 206 194 183 181 178 184 194 180 170 170 167 164
286 285 285 285 281 276 273 273 272 268 267 268 267 258 240 233 239 244 241 237 235 232 224 220 217 210 212 210 194 186 182 180 177 172 174 180 183 186 182 175 172 174 170
281 280 279 277 275 274 274 272 271 271 268 265 264 260 250 238 240 242 237 230 230 234 232 223 214 208 208 211 198 185 180 178 180 174 166 174 180 182 184 182 174 161 162
274 274 273 271 271 270 269 270 269 270 270 266 262 258 251 243 240 243 236 225 226 229 228 220 212 207 210 206 194 184 181 180 178 175 169 173 179 182 181 179 173 170 166
Height
1516 1516 1517 1517 1517 1517 1517 1517 1516 1515 1515 1514 1513 1512 1512 1511 1510 1509 1509 1508 1507 1507 1506 1506 1506 1505 1505 1505 1505 1505 1505 1506 1505 1506 1506 1506 1507 1508 1509 1510 1512 1513 1515
1515 1515 1516 1516 1516 1516 1516 1515 1515 1514 1513 1513 1512 1511 1511 1510 1509 1509 1508 1507 1507 1506 1505 1505 1505 1504 1504 1503 1503 1503 1504 1504 1504 1504 1504 1505 1505 1506 1507 1509 1510 1511 1513
1513 1514 1514 1514 1515 1514 1514 1514 1514 1513 1512 1512 1511 1510 1509 1509 1508 1508 1507 1506 1506 1505 1504 1504 1503 1503 1502 1502 1502 1502 1502 1502 1502 1502 1502 1503 1504 1505 1506 1507 1508 1509 1511
1512 1513 1513 1513 1513 1513 1512 1512 1512 1511 1511 1510 1509 1508 1508 1507 1507 1506 1506 1505 1505 1504 1503 1503 1502 1501 1501 1500 1500 1500 1500 1500 1501 1501 1501 1501 1502 1503 1504 1505 1506 1507 1509
1511 1511 1511 1511 1511 1511 1511 1510 1510 1510 1509 1508 1507 1507 1506 1505 1505 1505 1504 1504 1503 1503 1502 1502 1501 1500 1500 1499 1499 1499 1499 1499 1499 1499 1499 1500 1500 1501 1502 1503 1504 1505 1506
1510 1510 1510 1509 1509 1509 1509 1508 1508 1507 1507 1506 1505 1505 1504 1503 1503 1503 1502 1502 1501 1501 1501 1500 1500 1499 1498 1498 1497 1497 1497 1497 1497 1497 1498 1498 1499 1499 1500 1501 1502 1502 1504
1509 1508 1508 1508 1507 1507 1506 1506 1505 1505 1504 1504 1503 1502 1501 1501 1500 1500 1500 1499 1499 1499 1499 1498 1498 1497 1497 1496 1495 1495 1495 1495 1496 1496 1496 1496 1497 1497 1498 1499 1499 1500 1501
1507 1506 1506 1505 1505 1504 1504 1503 1503 1502 1502 1501 1500 1499 1498 1498 1498 1497 1497 1497 1497 1497 1496 1496 1496 1495 1495 1494 1494 1493 1493 1493 1494 1494 1494 1494 1495 1495 1496 1496 1497 1498 1499
1505 1505 1504 1503 1502 1502 1501 1500 1500 1499 1499 1498 1497 1496 1495 1494 1494 1494 1494 1494 1494 1494 1494 1494 1494 1493 1493 1493 1492 1492 1492 1492 1492 1492 1492 1492 1493 1493 1494 1494 1495 1496 1496
1503 1502 1502 1501 1500 1499 1498 1498 1497 1497 1496 1495 1494 1493 1492 1492 1491 1491 1491 1491 1491 1491 1491 1491 1491 1491 1491 1491 1490 1490 1490 1490 1490 1490 1490 1491 1491 1491 1492 1492 1492 1493 1494
1501 1500 1499 1498 1497 1496 1496 1495 1494 1493 1493 1492 1491 1490 1490 1489 1488 1488 1488 1488 1488 1487 1487 1487 1488 1488 1488 1488 1488 1488 1488 1488 1489 1488 1489 1489 1489 1489 1489 1490 1490 1491 1492
1498 1497 1496 1495 1494 1493 1492 1492 1491 1490 1490 1489 1488 1487 1487 1486 1485 1485 1484 1484 1484 1484 1484 1484 1484 1485 1485 1485 1485 1485 1486 1486 1486 1487 1487 1487 1487 1487 1487 1488 1488 1489 1489
1495 1494 1493 1492 1491 1490 1489 1488 1487 1487 1486 1485 1485 1484 1483 1482 1482 1481 1481 1481 1481 1481 1480 1481 1481 1481 1481 1481 1482 1482 1483 1483 1483 1484 1484 1484 1485 1485 1486 1486 1487 1487 1487
1492 1491 1490 1489 1488 1487 1486 1485 1484 1483 1483 1482 1481 1480 1479 1478 1478 1477 1477 1477 1477 1477 1477 1477 1477 1477 1477 1478 1478 1479 1479 1480 1480 1480 1481 1481 1482 1483 1483 1484 1484 1485 1485
1490 1489 1487 1486 1485 1484 1482 1481 1480 1480 1479 1478 1477 1477 1476 1474 1474 1473 1473 1472 1473 1473 1473 1473 1473 1473 1473 1474 1474 1475 1475 1476 1476 1477 1477 1478 1479 1480 1480 1481 1482 1483 1483
1487 1485 1484 1483 1481 1480 1479 1477 1476 1476 1475 1474 1474 1473 1472 1471 1470 1469 1469 1469 1469 1469 1469 1468 1468 1469 1469 1470 1470 1471 1471 1472 1472 1473 1474 1475 1475 1476 1477 1478 1479 1480 1480
1483 1482 1481 1479 1478 1476 1474 1473 1471 1470 1470 1469 1469 1468 1467 1466 1466 1465 1464 1464 1464 1464 1464 1464 1464 1464 1465 1466 1466 1467 1467 1468 1469 1469 1470 1471 1472 1473 1474 1475 1476 1477 1477
1480 1478 1477 1475 1474 1472 1470 1469 1467 1466 1464 1463 1463 1463 1462 1461 1460 1460 1459 1459 1458 1459 1459 1459 1459 1460 1460 1461 1462 1462 1463 1464 1465 1465 1466 1467 1468 1469 1470 1471 1472 1473 1474
1475 1474 1472 1471 1469 1468 1466 1465 1463 1462 1460 1459 1458 1457 1457 1456 1455 1455 1455 1454 1453 1453 1454 1454 1455 1455 1455 1456 1457 1457 1458 1459 1460 1461 1461 1462 1463 1465 1466 1467 1468 1469 1471
1470 1469 1468 1466 1464 1463 1461 1460 1458 1456 1455 1454 1452 1451 1451 1450 1449 1449 1449 1449 1448 1448 1449 1449 1449 1450 1450 1451 1451 1452 1453 1454 1455 1456 1457 1457 1459 1460 1461 1463 1464 1465 1467
1466 1464 1463 1461 1459 1458 1456 1455 1453 1451 1450 1448 1447 1446 1445 1444 1443 1443 1443 1443 1443 1443 1443 1444 1444 1444 1445 1445 1446 1446 1447 1448 1449 1451 1451 1453 1454 1455 1456 1458 1460 1461 1462
1461 1459 1458 1456 1454 1452 1451 1449 1447 1446 1444 1443 1441 1440 1439 1439 1438 1437 1437 1437 1437 1438 1438 1438 1438 1439 1439 1440 1440 1441 1441 1442 1444 1445 1446 1448 1449 1450 1451 1453 1455 1456 1458
1455 1454 1452 1450 1449 1447 1445 1443 1442 1440 1438 1437 1435 1434 1433 1432 1432 1431 1431 1431 1431 1431 1431 1432 1432 1432 1433 1434 1435 1435 1436 1437 1438 1440 1441 1442 1444 1445 1446 1448 1449 1451 1453
1450 1448 1446 1444 1443 1441 1439 1437 1436 1434 1432 1431 1429 1428 1426 1425 1425 1425 1425 1425 1425 1425 1425 1425 1426 1426 1427 1427 1428 1429 1430 1432 1433 1434 1436 1437 1438 1440 1441 1443 1445 1447 1449
1443 1441 1440 1438 1436 1435 1433 1431 1429 1428 1426 1425 1423 1422 1420 1419 1419 1419 1418 1418 1418 1418 1418 1419 1419 1419 1420 1421 1422 1423 1425 1426 1428 1429 1430 1431 1433 1434 1436 1438 1440 1442 1444
1436 1435 1433 1431 1429 1428 1426 1424 1423 1421 1419 1418 1416 1415 1414 1413 1412 1412 1411 1411 1411 1411 1411 1411 1412 1413 1414 1415 1416 1418 1419 1421 1422 1423 1424 1426 1427 1429 1431 1433 1435 1437 1439